Preview of NWS' New Version of Forecast
This preview is not operational and should not be used for support decisions.

Regional Weather Roundup (RWR)

Issued by Gray - Portland, ME (GYX)

                            
263 
ASUS41 KGYX 261605
RWRGYX
WEATHER ROUNDUP FOR MAINE AND NEW HAMPSHIRE
NATIONAL WEATHER SERVICE GRAY ME
1200 PM EDT TUE MAR 26 2019

MEZ002-005-006-010-012-015-018-020-021-024-026-027-029-261700-
MAINE
  
CITY           SKY/WX    TMP DP  RH WIND       PRES   REMARKS
PORTLAND       FAIR      36   4  26 NW13      30.26F                  
SANFORD        FAIR      35  -1  21 N10G22    30.25F                  
BAR HARBOR     FAIR      30   5  34 W9G18     30.22F                  
WISCASSET      FAIR      34   2  25 VRB5      30.26S                  
ROCKLAND       FAIR      32   5  32 NW12G17   30.23F                  
FRYEBURG       FAIR      33   4  29 NW8       30.24F                  
LEWISTONAUBURN FAIR      30   4  33 N9G22     30.25F                  
AUGUSTA          N/A     31   3  30 MISG      30.25S                  
WATERVILLE     FAIR      30   6  36 VRB7      30.21F                  
BANGOR         FAIR      30   3  31 NW15G24   30.24S WCI  19          
GREENVILLE       N/A     21  -3  35 NW14G20   30.11F WCI   8          
MILLINOCKET    FAIR      25  -1  32 NW14G20   30.21F WCI  13          
HOULTON        FAIR      22   1  40 VRB5G18   30.16F                  
PRESQUE ISLE   NOT AVBL                                               
FRENCHVILLE    FAIR      18  -4  37 W14G21    30.08F WCI   4          
CARIBOU        FAIR      20  -2  38 VRB7      30.12F                  
$$

NHZ002-005-008-009-011-012-014-261700-
NEW HAMPSHIRE
  
CITY           SKY/WX    TMP DP  RH WIND       PRES   REMARKS
PORTSMOUTH     SUNNY     38  -2  18 N8        30.24F                  
ROCHESTER      FAIR      36   2  23 VRB7      30.25S                  
NASHUA         FAIR      37   2  22 N13       30.28S                  
MANCHESTER     FAIR      38  -2  18 N12G25    30.26S                  
CONCORD        FAIR      35   2  24 NW9G20    30.27S                  
LACONIA        FAIR      32   3  29 W14G21    30.26S                  
PLYMOUTH       FAIR      30   4  33 NW16      30.29R WCI  19          
BERLIN         FAIR      27   2  34 NW9       30.21F                  
WHITEFIELD     FAIR      28  -1  28 NW9       30.24F                  
JAFFREY        FAIR      33  -1  23 VRB5G18   30.23S                  
KEENE          FAIR      35   4  27 N10G20    30.28S                  
LEBANON        FAIR      35   6  29 W12       30.29R                  
MT WASHINGTON  SUNNY     -4  -8  84 W44G54      N/A  WCI -35          
$$

VTZ005-007-008-261700-
VERMONT
  
CITY           SKY/WX    TMP DP  RH WIND       PRES   REMARKS
ST JOHNSBURY     N/A     27   5  39 MISG      30.27F                  
MONTPELIER     FAIR      24   5  44 W9        30.31S                  
BURLINGTON     FAIR      28   4  35 N13       30.36S WCI  17          
$$

MAZ007-012-024-CTZ003-RIZ002-NYZ038-NYZ072-261700-
SOUTHERN NEW ENGLAND AND NY
  
CITY           SKY/WX    TMP DP  RH WIND       PRES   REMARKS
BOSTON         FAIR      41   0  18 N13       30.27S                  
WORCESTER      FAIR      35   2  24 N8G24     30.22S                  
NANTUCKET      FAIR      40  14  34 N18G28    30.22R                  
PROVIDENCE     FAIR      41   3  20 N14G21    30.26S                  
HARTFORD       FAIR      42   2  18 N14       30.28S                  
ALBANY         FAIR      38   3  23 N8        30.34F                  
NEW YORK CITY  FAIR      43   3  19 N12       30.29S                  
$$

ANZ081-ANZ082-ANZ150-NHZ014-MEZ023>029-261700-
COASTAL MARINE OBSERVATIONS
  
STATION/POSITION TIME  TEMP    WIND        PRES    WAVE
                       AIR SEA DIR/SP/G            HT/PER
                 (UTC) (F)     (DEG/KT/KT) (MB)    (FT/S)
MOUNT DESERT ROC 1500   29     300/ 16/ 18 1023.3S
MATINICUS ROCK   1500   29     350/ 11/ 13 1023.4S
ISLE OF SHOALS   1500   32      20/ 10/ 15 1024.5R
CASHES LEDGE BUO 1550   34 39              1024.0F   3/ 5
$$

.............KEY..............
   WCI - WIND CHILL
   TC  - TEMPERATURE IN CELSIUS
   VSB - VISIBILITY IN MILES
   HX  - HEAT INDEX
   FAIR- INDICATES FEW OR NO CLOUDS BELOW 12,000 FT, WITH NO 
         SIGNIFICANT WEATHER AND/OR OBSTRUCTIONS TO VISIBILITY.